Total_Precipitation_Accumulation
0.00 0.00 0.00 0.00 0.00 0.00 0.00 0.00 0.00 0.00 0.01 0.02 0.04 0.06 0.07 0.14 0.30 0.48 0.60 0.68 0.77 0.87 1.08 1.26 1.33 1.58 1.75 1.65 1.58 1.56 1.53 1.46 1.32 0.58 0.31 0.27 0.28 0.31 0.33 0.37 0.39 0.29 0.22
0.00 0.00 0.00 0.00 0.00 0.00 0.00 0.00 0.00 0.00 0.00 0.00 0.00 0.00 0.00 0.00 0.00 0.01 0.03 0.05 0.08 0.14 0.22 0.31 0.36 0.54 0.79 1.00 1.18 1.25 1.41 1.66 1.90 1.27 0.68 0.56 0.55 0.52 0.48 0.40 0.33 0.34 0.33
0.00 0.00 0.00 0.00 0.00 0.00 0.00 0.00 0.00 0.00 0.00 0.00 0.00 0.00 0.00 0.00 0.00 0.00 0.00 0.00 0.00 0.01 0.03 0.05 0.09 0.11 0.14 0.18 0.26 0.37 0.44 0.52 0.75 0.81 0.62 0.58 0.61 0.73 0.81 0.75 0.62 0.53 0.47
0.00 0.00 0.00 0.00 0.00 0.00 0.00 0.00 0.00 0.00 0.00 0.00 0.00 0.00 0.00 0.00 0.00 0.00 0.00 0.01 0.01 0.01 0.03 0.03 0.05 0.05 0.06 0.10 0.16 0.18 0.23 0.28 0.29 0.31 0.31 0.31 0.32 0.40 0.50 0.52 0.51 0.43 0.35
0.00 0.00 0.00 0.00 0.00 0.00 0.00 0.00 0.00 0.00 0.00 0.00 0.00 0.00 0.00 0.00 0.00 0.00 0.00 0.00 0.01 0.00 0.01 0.03 0.04 0.07 0.10 0.10 0.10 0.08 0.13 0.19 0.24 0.26 0.24 0.21 0.21 0.21 0.22 0.25 0.27 0.30 0.34
0.00 0.00 0.00 0.00 0.00 0.00 0.00 0.00 0.00 0.00 0.00 0.00 0.00 0.00 0.00 0.00 0.00 0.00 0.00 0.00 0.00 0.00 0.00 0.02 0.03 0.07 0.05 0.07 0.07 0.10 0.10 0.09 0.09 0.10 0.09 0.08 0.09 0.11 0.15 0.21 0.29 0.37 0.37
0.00 0.00 0.00 0.00 0.00 0.00 0.00 0.00 0.00 0.00 0.00 0.00 0.00 0.00 0.00 0.00 0.00 0.00 0.00 0.00 0.00 0.00 0.00 0.00 0.00 0.00 0.02 0.03 0.09 0.13 0.12 0.14 0.13 0.09 0.07 0.06 0.06 0.06 0.09 0.11 0.10 0.10 0.10
0.00 0.00 0.00 0.00 0.00 0.00 0.00 0.00 0.00 0.00 0.00 0.00 0.00 0.00 0.00 0.00 0.00 0.00 0.00 0.00 0.00 0.00 0.00 0.00 0.00 0.00 0.00 0.00 0.00 0.02 0.04 0.10 0.16 0.18 0.16 0.16 0.17 0.18 0.18 0.15 0.09 0.08 0.09
0.00 0.00 0.00 0.00 0.00 0.00 0.00 0.00 0.00 0.00 0.00 0.00 0.00 0.00 0.00 0.00 0.00 0.00 0.00 0.00 0.00 0.00 0.00 0.00 0.00 0.00 0.00 0.00 0.00 0.00 0.00 0.01 0.09 0.17 0.24 0.35 0.42 0.42 0.33 0.28 0.32 0.30 0.23
0.00 0.00 0.00 0.00 0.00 0.00 0.00 0.00 0.00 0.00 0.00 0.00 0.00 0.00 0.00 0.00 0.00 0.00 0.00 0.00 0.00 0.00 0.00 0.00 0.00 0.00 0.01 0.01 0.01 0.01 0.01 0.00 0.01 0.03 0.07 0.16 0.26 0.32 0.36 0.23 0.16 0.19 0.24
0.00 0.00 0.00 0.00 0.00 0.00 0.00 0.00 0.00 0.00 0.00 0.00 0.00 0.00 0.00 0.00 0.00 0.00 0.00 0.00 0.00 0.01 0.01 0.00 0.00 0.01 0.02 0.02 0.03 0.02 0.03 0.03 0.02 0.03 0.04 0.10 0.17 0.27 0.31 0.31 0.29 0.28 0.22
0.00 0.00 0.00 0.00 0.00 0.00 0.00 0.00 0.00 0.00 0.00 0.00 0.00 0.00 0.00 0.00 0.00 0.00 0.00 0.00 0.01 0.01 0.01 0.00 0.01 0.03 0.03 0.03 0.03 0.04 0.06 0.07 0.04 0.03 0.03 0.06 0.13 0.19 0.25 0.30 0.38 0.47 0.45
0.00 0.00 0.00 0.00 0.00 0.00 0.00 0.00 0.00 0.00 0.00 0.00 0.00 0.00 0.00 0.00 0.00 0.00 0.00 0.00 0.01 0.02 0.02 0.03 0.03 0.04 0.04 0.03 0.04 0.07 0.07 0.06 0.03 0.03 0.03 0.05 0.07 0.11 0.21 0.36 0.47 0.50 0.56
0.00 0.00 0.00 0.00 0.00 0.00 0.00 0.00 0.00 0.00 0.00 0.00 0.00 0.00 0.00 0.00 0.00 0.00 0.00 0.01 0.01 0.02 0.02 0.03 0.05 0.05 0.06 0.05 0.07 0.08 0.08 0.08 0.08 0.09 0.07 0.06 0.09 0.14 0.21 0.29 0.37 0.40 0.44
0.00 0.00 0.00 0.00 0.00 0.00 0.00 0.00 0.00 0.00 0.00 0.00 0.00 0.00 0.01 0.01 0.00 0.01 0.02 0.03 0.03 0.02 0.04 0.04 0.04 0.05 0.06 0.08 0.08 0.08 0.15 0.16 0.16 0.14 0.18 0.18 0.16 0.18 0.19 0.18 0.26 0.33 0.42
0.00 0.00 0.00 0.00 0.00 0.00 0.00 0.00 0.00 0.00 0.00 0.00 0.00 0.00 0.00 0.01 0.02 0.03 0.03 0.03 0.03 0.04 0.06 0.07 0.04 0.05 0.07 0.08 0.11 0.15 0.18 0.23 0.22 0.25 0.26 0.26 0.28 0.27 0.24 0.27 0.28 0.28 0.33
0.00 0.00 0.00 0.00 0.00 0.00 0.00 0.00 0.00 0.00 0.00 0.00 0.00 0.00 0.01 0.01 0.02 0.02 0.03 0.04 0.05 0.06 0.06 0.05 0.04 0.04 0.05 0.07 0.09 0.12 0.15 0.15 0.21 0.31 0.40 0.40 0.39 0.39 0.44 0.36 0.32 0.35 0.34
0.00 0.00 0.00 0.00 0.00 0.00 0.00 0.00 0.00 0.00 0.00 0.00 0.00 0.00 0.00 0.01 0.01 0.02 0.03 0.05 0.05 0.03 0.03 0.02 0.03 0.04 0.04 0.07 0.10 0.11 0.15 0.18 0.24 0.28 0.34 0.35 0.40 0.44 0.41 0.30 0.29 0.28 0.27
0.00 0.00 0.00 0.00 0.00 0.00 0.00 0.00 0.00 0.00 0.00 0.00 0.00 0.00 0.00 0.00 0.01 0.02 0.02 0.03 0.03 0.02 0.02 0.02 0.03 0.05 0.06 0.07 0.09 0.12 0.17 0.21 0.22 0.26 0.29 0.30 0.30 0.38 0.37 0.30 0.31 0.28 0.25
0.00 0.00 0.00 0.00 0.00 0.00 0.00 0.00 0.00 0.00 0.01 0.01 0.01 0.00 0.00 0.03 0.04 0.01 0.01 0.01 0.02 0.03 0.03 0.03 0.04 0.04 0.04 0.05 0.08 0.13 0.19 0.22 0.20 0.22 0.21 0.21 0.25 0.30 0.32 0.31 0.32 0.37 0.27
0.00 0.00 0.00 0.00 0.00 0.00 0.00 0.00 0.00 0.01 0.01 0.01 0.01 0.00 0.02 0.09 0.13 0.07 0.04 0.03 0.04 0.04 0.05 0.06 0.05 0.04 0.06 0.08 0.12 0.15 0.15 0.13 0.11 0.13 0.18 0.19 0.22 0.28 0.25 0.24 0.30 0.33 0.27
0.00 0.00 0.00 0.00 0.00 0.00 0.01 0.02 0.03 0.03 0.02 0.02 0.01 0.00 0.01 0.04 0.04 0.04 0.03 0.02 0.02 0.03 0.05 0.10 0.09 0.05 0.04 0.05 0.06 0.11 0.14 0.15 0.13 0.13 0.16 0.19 0.21 0.24 0.25 0.25 0.27 0.32 0.28
0.00 0.02 0.01 0.00 0.01 0.01 0.01 0.01 0.01 0.02 0.04 0.03 0.03 0.03 0.02 0.02 0.03 0.04 0.04 0.03 0.04 0.04 0.04 0.06 0.08 0.05 0.03 0.04 0.06 0.09 0.13 0.11 0.09 0.12 0.17 0.21 0.22 0.25 0.24 0.21 0.19 0.24 0.23
0.05 0.02 0.01 0.01 0.01 0.02 0.02 0.02 0.02 0.02 0.04 0.06 0.06 0.05 0.04 0.04 0.04 0.03 0.03 0.04 0.05 0.04 0.04 0.07 0.08 0.05 0.05 0.05 0.06 0.06 0.09 0.10 0.16 0.17 0.18 0.24 0.24 0.24 0.27 0.25 0.21 0.21 0.22
0.00 0.00 0.01 0.01 0.01 0.01 0.02 0.01 0.02 0.04 0.04 0.03 0.02 0.03 0.03 0.03 0.04 0.03 0.03 0.04 0.04 0.04 0.04 0.04 0.05 0.05 0.05 0.05 0.05 0.04 0.09 0.12 0.14 0.17 0.21 0.24 0.23 0.21 0.21 0.21 0.20 0.23 0.25
0.00 0.01 0.01 0.01 0.02 0.02 0.04 0.06 0.05 0.02 0.02 0.03 0.03 0.03 0.03 0.03 0.03 0.02 0.03 0.05 0.07 0.07 0.05 0.05 0.05 0.05 0.06 0.07 0.05 0.06 0.09 0.10 0.12 0.15 0.22 0.25 0.25 0.24 0.23 0.21 0.21 0.24 0.25